When you browse on this site, cookies collect data to enhance your experience and personalize the content and advertising you see.
Visit our Privacy Policy to learn more. By continuing to use the site, you agree to this use of cookies and data.
  • In Czech Republic
  • List of Countries
  • For 7 days
  • Water Temperature
  • Weather Map
  • Weather Widgets
  • user-avatar
    Login

    Hourly Weather La Ceiba

    Today, 24 February, Monday

    Time Temperature Precipitation Wind Pressure Humidity
    00:00 +21°C° 0 mm 1 mps 761 mmHg 95%
    01:00 +20°C° 0 mm 1 mps 761 mmHg 95%
    02:00 +20°C° 0 mm 1 mps 760 mmHg 96%
    03:00 +20°C° 0 mm 1 mps 760 mmHg 96%
    04:00 +18°C° 0 mm 2 mps 760 mmHg 96%
    05:00 +18°C° 0 mm 2 mps 760 mmHg 96%
    06:00 +18°C° 0 mm 2 mps 761 mmHg 95%
    07:00 +22°C° 0 mm 1 mps 761 mmHg 83%
    08:00 +25°C° 0 mm 1 mps 761 mmHg 70%
    09:00 +26°C° 0 mm 0 mps 761 mmHg 58%
    10:00 +30°C° 0 mm 1 mps 761 mmHg 51%
    11:00 +32°C° 0 mm 1 mps 760 mmHg 44%
    12:00 +35°C° 0 mm 2 mps 759 mmHg 37%
    13:00 +35°C° 0 mm 2 mps 758 mmHg 39%
    14:00 +34°C° 0 mm 2 mps 757 mmHg 41%
    15:00 +34°C° 0 mm 2 mps 756 mmHg 43%
    16:00 +30°C° 0 mm 3 mps 756 mmHg 55%
    17:00 +28°C° 0 mm 3 mps 756 mmHg 68%
    18:00 +25°C° 0 mm 4 mps 756 mmHg 80%
    19:00 +23°C° 0 mm 4 mps 757 mmHg 83%
    20:00 +23°C° 0 mm 4 mps 758 mmHg 85%
    21:00 +22°C° 0 mm 4 mps 758 mmHg 88%
    22:00 +22°C° 0 mm 3 mps 758 mmHg 86%
    23:00 +22°C° 0 mm 3 mps 758 mmHg 84%

    Tomorrow, 25 February, Tuesday

    Time Temperature Precipitation Wind Pressure Humidity
    00:00 +23°C° 0 mm 2 mps 758 mmHg 82%
    01:00 +23°C° 0 mm 2 mps 758 mmHg 81%
    02:00 +23°C° 0 mm 2 mps 757 mmHg 80%
    03:00 +23°C° 0 mm 2 mps 757 mmHg 79%
    04:00 +23°C° 0 mm 2 mps 757 mmHg 80%
    05:00 +23°C° 0 mm 2 mps 757 mmHg 80%
    06:00 +23°C° 0 mm 2 mps 758 mmHg 81%
    07:00 +25°C° 0 mm 2 mps 758 mmHg 73%
    08:00 +28°C° 0 mm 1 mps 758 mmHg 65%
    09:00 +31°C° 0 mm 1 mps 759 mmHg 57%
    10:00 +33°C° 0 mm 1 mps 758 mmHg 53%
    11:00 +35°C° 0 mm 2 mps 758 mmHg 49%
    12:00 +37°C° 0 mm 2 mps 757 mmHg 44%
    13:00 +36°C° 0 mm 2 mps 757 mmHg 45%
    14:00 +36°C° 0 mm 2 mps 756 mmHg 46%
    15:00 +35°C° 0 mm 2 mps 755 mmHg 47%
    16:00 +32°C° 0 mm 2 mps 755 mmHg 60%
    17:00 +29°C° 0 mm 2 mps 755 mmHg 72%
    18:00 +26°C° 0 mm 2 mps 756 mmHg 85%
    19:00 +26°C° 0 mm 2 mps 756 mmHg 85%
    20:00 +26°C° 0 mm 2 mps 757 mmHg 85%
    21:00 +25°C° 0 mm 2 mps 758 mmHg 85%
    22:00 +25°C° 0 mm 1 mps 758 mmHg 84%
    23:00 +25°C° 0 mm 1 mps 757 mmHg 83%

    Day after tomorrow, 26 February, Wednesday

    Time Temperature Precipitation Wind Pressure Humidity
    00:00 +25°C° 0 mm 1 mps 757 mmHg 82%
    01:00 +25°C° 0 mm 1 mps 757 mmHg 82%
    02:00 +25°C° 0 mm 1 mps 757 mmHg 81%
    03:00 +25°C° 0 mm 1 mps 757 mmHg 81%
    04:00 +25°C° 0 mm 2 mps 757 mmHg 82%
    05:00 +24°C° 0 mm 2 mps 758 mmHg 83%
    06:00 +24°C° 0 mm 2 mps 758 mmHg 84%
    07:00 +27°C° 0 mm 2 mps 758 mmHg 75%
    08:00 +30°C° 0 mm 2 mps 759 mmHg 66%
    09:00 +34°C° 0 mm 3 mps 760 mmHg 57%
    10:00 +34°C° 0 mm 3 mps 759 mmHg 57%
    11:00 +35°C° 0 mm 3 mps 759 mmHg 57%
    12:00 +35°C° 0 mm 4 mps 758 mmHg 58%
    13:00 +34°C° 0.3 mm 3 mps 758 mmHg 63%
    14:00 +34°C° 0.3 mm 3 mps 757 mmHg 68%
    15:00 +33°C° 0.3 mm 3 mps 757 mmHg 73%
    16:00 +31°C° 0.1 mm 2 mps 757 mmHg 80%
    17:00 +29°C° 0.1 mm 2 mps 757 mmHg 87%
    18:00 +27°C° 0.1 mm 1 mps 758 mmHg 94%
    19:00 +27°C° 0 mm 1 mps 759 mmHg 95%
    20:00 +26°C° 0 mm 1 mps 759 mmHg 95%
    21:00 +26°C° 0 mm 1 mps 760 mmHg 95%
    22:00 +25°C° 0.1 mm 1 mps 760 mmHg 95%
    23:00 +25°C° 0.1 mm 1 mps 760 mmHg 95%

    27 February, Thursday

    Time Temperature Precipitation Wind Pressure Humidity
    00:00 +25°C° 0.1 mm 2 mps 760 mmHg 95%
    01:00 +24°C° 0.3 mm 2 mps 760 mmHg 93%
    02:00 +24°C° 0.3 mm 3 mps 760 mmHg 92%
    03:00 +24°C° 0.3 mm 3 mps 760 mmHg 91%
    04:00 +24°C° 0.6 mm 3 mps 760 mmHg 92%
    05:00 +24°C° 0.6 mm 3 mps 761 mmHg 93%
    06:00 +24°C° 0.6 mm 3 mps 761 mmHg 94%
    07:00 +26°C° 1.2 mm 3 mps 762 mmHg 89%
    08:00 +27°C° 1.2 mm 3 mps 762 mmHg 84%
    09:00 +29°C° 1.2 mm 3 mps 763 mmHg 79%
    10:00 +29°C° 1 mm 3 mps 763 mmHg 79%
    11:00 +29°C° 1 mm 3 mps 762 mmHg 80%
    12:00 +29°C° 1 mm 3 mps 762 mmHg 80%
    13:00 +28°C° 1.1 mm 3 mps 762 mmHg 85%
    14:00 +27°C° 1.1 mm 2 mps 762 mmHg 89%
    15:00 +26°C° 1.1 mm 2 mps 762 mmHg 93%
    16:00 +26°C° 0.6 mm 2 mps 762 mmHg 94%
    17:00 +25°C° 0.6 mm 2 mps 762 mmHg 96%
    18:00 +25°C° 0.6 mm 2 mps 763 mmHg 97%
    19:00 +25°C° 1.6 mm 3 mps 763 mmHg 97%
    20:00 +25°C° 1.6 mm 3 mps 764 mmHg 97%
    21:00 +23°C° 1.6 mm 4 mps 764 mmHg 97%
    22:00 +25°C° 3.9 mm 4 mps 764 mmHg 98%
    23:00 +25°C° 3.9 mm 5 mps 764 mmHg 98%

    28 February, Friday

    Time Temperature Precipitation Wind Pressure Humidity
    00:00 +25°C° 3.9 mm 5 mps 764 mmHg 99%
    01:00 +25°C° 5.3 mm 5 mps 763 mmHg 99%
    02:00 +25°C° 5.3 mm 5 mps 763 mmHg 99%
    03:00 +25°C° 5.3 mm 5 mps 763 mmHg 99%
    04:00 +23°C° 6.1 mm 4 mps 763 mmHg 99%
    05:00 +23°C° 6.1 mm 4 mps 764 mmHg 99%
    06:00 +23°C° 6.1 mm 4 mps 764 mmHg 99%
    07:00 +23°C° 5.1 mm 4 mps 765 mmHg 99%
    08:00 +22°C° 5.1 mm 3 mps 765 mmHg 98%
    09:00 +22°C° 5.1 mm 3 mps 766 mmHg 98%
    10:00 +22°C° 3.9 mm 3 mps 765 mmHg 98%
    11:00 +22°C° 3.9 mm 4 mps 765 mmHg 98%
    12:00 +22°C° 3.9 mm 4 mps 765 mmHg 98%
    13:00 +22°C° 2.7 mm 4 mps 765 mmHg 98%
    14:00 +22°C° 2.7 mm 4 mps 764 mmHg 98%
    15:00 +22°C° 2.7 mm 3 mps 764 mmHg 98%
    16:00 +22°C° 1 mm 3 mps 764 mmHg 98%
    17:00 +22°C° 1 mm 3 mps 765 mmHg 98%
    18:00 +23°C° 1 mm 2 mps 765 mmHg 98%
    19:00 +23°C° 1.9 mm 2 mps 765 mmHg 98%
    20:00 +23°C° 1.9 mm 2 mps 766 mmHg 99%
    21:00 +23°C° 1.9 mm 2 mps 766 mmHg 99%
    22:00 +23°C° 1.9 mm 2 mps 766 mmHg 99%
    23:00 +23°C° 1.9 mm 2 mps 766 mmHg 99%

    29 February, Saturday

    Time Temperature Precipitation Wind Pressure Humidity
    00:00 +23°C° 1.9 mm 2 mps 766 mmHg 99%
    01:00 +23°C° 1.9 mm 2 mps 765 mmHg 99%
    02:00 +22°C° 1.9 mm 3 mps 765 mmHg 99%
    03:00 +22°C° 1.9 mm 4 mps 764 mmHg 99%
    04:00 +22°C° 1.3 mm 3 mps 765 mmHg 98%
    05:00 +22°C° 1.3 mm 3 mps 765 mmHg 98%
    06:00 +22°C° 1.3 mm 3 mps 765 mmHg 98%
    07:00 +24°C° 1.2 mm 3 mps 766 mmHg 97%
    08:00 +24°C° 1.2 mm 3 mps 766 mmHg 96%
    09:00 +25°C° 1.2 mm 3 mps 767 mmHg 95%
    10:00 +24°C° 1.7 mm 3 mps 766 mmHg 96%
    11:00 +23°C° 1.7 mm 4 mps 766 mmHg 97%
    12:00 +23°C° 1.7 mm 4 mps 766 mmHg 98%
    13:00 +23°C° 1.4 mm 4 mps 765 mmHg 98%
    14:00 +24°C° 1.4 mm 3 mps 765 mmHg 98%
    15:00 +22°C° 1.4 mm 3 mps 764 mmHg 98%
    16:00 +22°C° 1.4 mm 3 mps 765 mmHg 98%
    17:00 +22°C° 1.4 mm 3 mps 765 mmHg 98%
    18:00 +22°C° 1.4 mm 3 mps 765 mmHg 98%
    19:00 +22°C° 1 mm 3 mps 766 mmHg 98%
    20:00 +22°C° 1 mm 3 mps 766 mmHg 98%
    21:00 +22°C° 1 mm 3 mps 766 mmHg 98%
    22:00 +21°C° 0.7 mm 3 mps 766 mmHg 98%
    23:00 +21°C° 0.7 mm 3 mps 766 mmHg 98%
    Show more